COSMOS 2251 DEB, 37960

Orbit data source: Space-Track

COSMOS 2251 DEB, 37960 is space debris in LEO originally from a launch on Wed, 16 Jun 1993 UTC launched from the Plesetsk Missile And Space Complex (PKMTR). The debris from Iridium 33, an American commercial communications satellite, has been tracked extensively since its accidental collision with the defunct Russian satellite Cosmos 2251 in 2009. This event, occurring at high speed in low Earth orbit (LEO), generated thousands of pieces of space debris, significantly increasing the risk of further collisions. The Iridium 33 debris cloud has impacted space traffic management and orbital debris mitigation strategies, making it a subject of ongoing study in space situational awareness.

Loading next visibility...
Identifier
37960, 1993-036BPK
Orbit
LEO
Country
Flag of CISCIS
Related business
Manufacturer
Unknown
Mission
Spacecraft
Bus & Motor
Unknown
Mass
Unknown
Launch date (UTC)
1993-06-16 (33 years ago)
Launch vehicle
Unknown
Launch site
Plesetsk Missile And Space Complex (PKMTR)
Object type
Payload
Rocket body
Debris
Shape & HBR
Unknown shape, 0.1 m
Radar Cross Section
Small (<0.1 m²)

Expand to show TLE details & history
Last TLE update: 1 day ago

TLE from 1 day ago
0 COSMOS 2251 DEB
1 37960U 93036BPK 26033.42165464  .00001306  00000-0  59312-3 0  9995
2 37960  74.0595  96.3054 0244651 102.5646 260.2972 14.08077590781331
Epoch: 2026-02-02T10:07Z
TLE epoch observation values (Epoch: 2026-02-02T10:07:10.960Z)
Latitude
-0.0001°
Longitude
171.89253°
Altitude
902.6 km
Speed
7.384 km/s
True Right ascension
06h 25m 13s
True Declination
0° 00' 00"
Sunlit
Object was in full shadow at epoch
Visualization orbit readout
Latitude
Unknown
Longitude
Unknown
Altitude
Unknown
Speed
Unknown
Apparent Right ascension
Unknown
Apparent Declination
Unknown
Sunlit
N/A
Visualization observer readout
Local Sidereal Time
13:16:14
Azimuth
Unknown
Elevation
Unknown
Doppler factor
Unknown
Orbital elements
Apogee altitude
1,040.779 km
Perigee altitude
686.439 km
Semi-major axis
7,241.746 km
Eccentricity
0.02447
Inclination
74.0595°
RAAN
96.3054°
Arg. of periapsis
102.5646°
True anomaly
257.54904°
Mean anomaly
260.2972°
Eccentric anomaly
258.92157°
Mean motion
3.52191 °/min
Orbital period
102.22 mins
BSTAR
0.00059312
Loading maneuver chart data...
Computing Atmospheric mass density...

Documentation

Showing up to 5 results
|